Time,TemperatureF,DewpointF,PressureIn,WindDirection,WindDirectionDegrees,WindSpeedMPH,WindSpeedGustMPH,Humidity,HourlyPrecipIn,Conditions,Clouds,dailyrainin,SoftwareType,DateUTC
2013-03-07 00:01:00,46.0,43.0,29.51,East,89,0.0,2.0,90,0.00,,,0.01,,2013-03-07 00:01:00,
2013-03-07 00:11:00,46.0,43.0,29.51,East,89,0.0,2.0,90,0.00,,,0.01,,2013-03-07 00:11:00,
2013-03-07 00:21:00,46.0,44.0,29.50,East,84,0.0,4.0,91,0.00,,,0.01,,2013-03-07 00:21:00,
2013-03-07 00:32:00,46.0,44.0,29.50,East,82,0.0,4.0,91,0.00,,,0.01,,2013-03-07 00:32:00,
2013-03-07 00:41:00,46.0,44.0,29.50,East,82,0.0,4.0,91,0.00,,,0.01,,2013-03-07 00:41:00,
2013-03-07 00:52:00,46.0,44.0,29.50,East,82,0.0,2.0,91,0.00,,,0.01,,2013-03-07 00:52:00,
2013-03-07 01:01:00,46.0,44.0,29.50,East,91,0.0,6.0,92,0.01,,,0.02,,2013-03-07 01:01:00,
2013-03-07 01:11:00,46.0,44.0,29.50,East,91,0.0,6.0,92,0.01,,,0.02,,2013-03-07 01:11:00,
2013-03-07 01:21:00,46.0,44.0,29.50,ESE,102,0.0,2.0,93,0.01,,,0.02,,2013-03-07 01:21:00,
2013-03-07 01:31:00,45.0,43.0,29.50,East,80,0.0,2.0,93,0.02,,,0.02,,2013-03-07 01:31:00,
2013-03-07 01:41:00,45.0,43.0,29.50,East,80,0.0,2.0,93,0.02,,,0.02,,2013-03-07 01:41:00,
2013-03-07 01:51:00,45.0,43.0,29.50,ENE,73,0.0,6.0,94,0.02,,,0.02,,2013-03-07 01:51:00,
2013-03-07 02:01:00,45.0,43.0,29.49,ENE,69,0.0,2.0,94,0.01,,,0.02,,2013-03-07 02:01:00,
2013-03-07 02:11:00,45.0,43.0,29.49,ENE,69,0.0,2.0,94,0.01,,,0.02,,2013-03-07 02:11:00,
2013-03-07 02:21:00,45.0,44.0,29.49,ENE,69,0.0,2.0,95,0.02,,,0.03,,2013-03-07 02:21:00,
2013-03-07 02:31:00,44.0,43.0,29.49,ENE,67,0.0,2.0,96,0.02,,,0.04,,2013-03-07 02:31:00,
2013-03-07 02:41:00,44.0,43.0,29.49,ENE,67,0.0,2.0,96,0.02,,,0.04,,2013-03-07 02:41:00,
2013-03-07 02:51:00,44.0,43.0,29.49,ENE,67,0.0,2.0,96,0.02,,,0.04,,2013-03-07 02:51:00,
2013-03-07 03:01:00,44.0,43.0,29.47,NE,54,0.0,6.0,97,0.02,,,0.06,,2013-03-07 03:01:00,
2013-03-07 03:11:00,44.0,43.0,29.47,NE,54,0.0,6.0,97,0.02,,,0.06,,2013-03-07 03:11:00,
2013-03-07 03:21:00,44.0,43.0,29.47,NE,42,0.0,4.0,97,0.02,,,0.06,,2013-03-07 03:21:00,
2013-03-07 03:31:00,44.0,43.0,29.47,NE,40,0.0,2.0,97,0.02,,,0.06,,2013-03-07 03:31:00,
2013-03-07 03:41:00,44.0,43.0,29.47,NE,40,0.0,2.0,97,0.02,,,0.06,,2013-03-07 03:41:00,
2013-03-07 03:51:00,44.0,43.0,29.47,NE,40,0.0,4.0,97,0.02,,,0.07,,2013-03-07 03:51:00,
2013-03-07 04:01:00,44.0,43.0,29.47,SE,125,0.0,4.0,98,0.02,,,0.07,,2013-03-07 04:01:00,
2013-03-07 04:11:00,44.0,43.0,29.47,SE,125,0.0,4.0,98,0.02,,,0.07,,2013-03-07 04:11:00,
2013-03-07 04:21:00,45.0,44.0,29.47,East,81,0.0,2.0,98,0.03,,,0.09,,2013-03-07 04:21:00,
2013-03-07 04:31:00,45.0,44.0,29.46,East,80,0.0,2.0,98,0.02,,,0.09,,2013-03-07 04:31:00,
2013-03-07 04:41:00,45.0,44.0,29.46,East,80,0.0,2.0,98,0.02,,,0.09,,2013-03-07 04:41:00,
2013-03-07 04:52:00,45.0,44.0,29.46,East,80,0.0,2.0,98,0.02,,,0.09,,2013-03-07 04:52:00,
2013-03-07 05:01:00,44.0,43.0,29.45,East,79,0.0,6.0,98,0.02,,,0.10,,2013-03-07 05:01:00,
2013-03-07 05:12:00,44.0,43.0,29.45,East,79,0.0,6.0,98,0.02,,,0.10,,2013-03-07 05:12:00,
2013-03-07 05:22:00,44.0,43.0,29.45,ENE,76,0.0,4.0,98,0.02,,,0.10,,2013-03-07 05:22:00,
2013-03-07 05:31:00,44.0,43.0,29.44,NE,45,0.0,6.0,98,0.02,,,0.10,,2013-03-07 05:31:00,
2013-03-07 05:41:00,44.0,43.0,29.44,NE,45,0.0,6.0,98,0.02,,,0.10,,2013-03-07 05:41:00,
2013-03-07 05:52:00,44.0,44.0,29.44,NNE,27,0.0,4.0,99,0.01,,,0.10,,2013-03-07 05:52:00,
2013-03-07 06:01:00,44.0,44.0,29.44,North,0,0.0,0.0,99,0.01,,,0.11,,2013-03-07 06:01:00,
2013-03-07 06:11:00,44.0,44.0,29.44,North,0,0.0,0.0,99,0.01,,,0.11,,2013-03-07 06:11:00,
2013-03-07 06:21:00,44.0,44.0,29.44,North,0,0.0,0.0,99,0.01,,,0.11,,2013-03-07 06:21:00,
2013-03-07 06:31:00,44.0,44.0,29.44,North,0,0.0,0.0,99,0.01,,,0.11,,2013-03-07 06:31:00,
2013-03-07 06:41:00,44.0,44.0,29.44,North,0,0.0,0.0,99,0.01,,,0.11,,2013-03-07 06:41:00,
2013-03-07 06:51:00,44.0,44.0,29.44,North,0,0.0,0.0,99,0.01,,,0.11,,2013-03-07 06:51:00,
2013-03-07 07:01:00,45.0,45.0,29.45,North,0,0.0,0.0,99,0.02,,,0.13,,2013-03-07 07:01:00,
2013-03-07 07:11:00,45.0,45.0,29.45,North,0,0.0,0.0,99,0.02,,,0.13,,2013-03-07 07:11:00,
2013-03-07 07:21:00,45.0,45.0,29.45,North,0,0.0,0.0,99,0.02,,,0.13,,2013-03-07 07:21:00,
2013-03-07 07:31:00,45.0,45.0,29.45,NNE,27,0.0,4.0,99,0.02,,,0.13,,2013-03-07 07:31:00,
2013-03-07 07:41:00,45.0,45.0,29.45,NNE,27,0.0,4.0,99,0.02,,,0.13,,2013-03-07 07:41:00,
2013-03-07 07:52:00,45.0,45.0,29.45,NNE,27,0.0,4.0,99,0.02,,,0.13,,2013-03-07 07:52:00,
2013-03-07 08:01:00,45.0,45.0,29.44,NNE,28,0.0,4.0,99,0.02,,,0.15,,2013-03-07 08:01:00,
2013-03-07 08:11:00,45.0,45.0,29.44,NNE,28,0.0,4.0,99,0.02,,,0.15,,2013-03-07 08:11:00,
2013-03-07 08:22:00,45.0,45.0,29.44,NNE,28,0.0,4.0,99,0.02,,,0.15,,2013-03-07 08:22:00,
2013-03-07 08:32:00,46.0,46.0,29.46,SE,137,0.0,4.0,100,0.02,,,0.16,,2013-03-07 08:32:00,
2013-03-07 08:43:00,46.0,46.0,29.46,SE,137,0.0,4.0,100,0.02,,,0.16,,2013-03-07 08:43:00,
2013-03-07 09:02:00,46.0,46.0,29.45,SE,125,0.0,4.0,99,0.01,,,0.16,,2013-03-07 09:02:00,
2013-03-07 09:11:00,46.0,46.0,29.45,SE,125,0.0,4.0,99,0.01,,,0.16,,2013-03-07 09:11:00,
2013-03-07 09:22:00,46.0,46.0,29.44,SE,125,0.0,2.0,99,0.01,,,0.16,,2013-03-07 09:22:00,
2013-03-07 09:43:00,47.0,47.0,29.44,SE,125,0.0,2.0,100,0.00,,,0.16,,2013-03-07 09:43:00,
2013-03-07 09:52:00,47.0,47.0,29.44,ENE,69,0.0,2.0,100,0.01,,,0.17,,2013-03-07 09:52:00,
2013-03-07 10:01:00,47.0,47.0,29.43,ENE,68,0.0,2.0,100,0.01,,,0.17,,2013-03-07 10:01:00,
2013-03-07 10:11:00,47.0,47.0,29.43,ENE,68,0.0,2.0,100,0.01,,,0.17,,2013-03-07 10:11:00,
2013-03-07 10:22:00,47.0,47.0,29.43,ENE,68,0.0,2.0,99,0.01,,,0.17,,2013-03-07 10:22:00,
2013-03-07 10:32:00,47.0,47.0,29.43,ESE,114,3.0,6.0,99,0.02,,,0.17,,2013-03-07 10:32:00,
2013-03-07 10:42:00,47.0,47.0,29.43,ESE,114,3.0,6.0,99,0.02,,,0.17,,2013-03-07 10:42:00,
2013-03-07 10:52:00,47.0,47.0,29.43,ESE,114,3.0,6.0,99,0.02,,,0.17,,2013-03-07 10:52:00,
2013-03-07 11:02:00,47.0,46.0,29.42,ENE,75,3.0,8.0,98,0.01,,,0.17,,2013-03-07 11:02:00,
2013-03-07 11:11:00,47.0,46.0,29.42,ENE,75,3.0,8.0,98,0.01,,,0.17,,2013-03-07 11:11:00,
2013-03-07 11:22:00,47.0,46.0,29.42,ENE,75,3.0,8.0,98,0.01,,,0.17,,2013-03-07 11:22:00,
2013-03-07 11:32:00,48.0,47.0,29.41,East,83,0.0,4.0,97,0.01,,,0.17,,2013-03-07 11:32:00,
2013-03-07 11:42:00,48.0,47.0,29.41,East,83,0.0,4.0,97,0.01,,,0.17,,2013-03-07 11:42:00,
2013-03-07 11:53:00,48.0,47.0,29.41,ESE,119,0.0,4.0,97,0.00,,,0.17,,2013-03-07 11:53:00,
2013-03-07 12:02:00,49.0,48.0,29.40,ESE,108,0.0,6.0,97,0.01,,,0.18,,2013-03-07 12:02:00,
2013-03-07 12:11:00,49.0,48.0,29.40,ESE,108,0.0,6.0,97,0.01,,,0.18,,2013-03-07 12:11:00,
2013-03-07 12:22:00,49.0,48.0,29.40,East,101,0.0,4.0,96,0.01,,,0.18,,2013-03-07 12:22:00,
2013-03-07 12:32:00,49.0,48.0,29.40,ENE,63,0.0,4.0,97,0.02,,,0.19,,2013-03-07 12:32:00,
2013-03-07 12:42:00,49.0,48.0,29.40,ENE,63,0.0,4.0,97,0.02,,,0.19,,2013-03-07 12:42:00,
2013-03-07 12:52:00,49.0,48.0,29.40,ESE,112,0.0,8.0,96,0.01,,,0.19,,2013-03-07 12:52:00,
2013-03-07 13:02:00,49.0,48.0,29.40,ESE,112,0.0,8.0,96,0.01,,,0.19,,2013-03-07 13:02:00,
2013-03-07 13:11:00,49.0,48.0,29.40,ESE,112,0.0,8.0,96,0.01,,,0.19,,2013-03-07 13:11:00,
2013-03-07 13:22:00,49.0,48.0,29.39,East,81,0.0,6.0,96,0.02,,,0.20,,2013-03-07 13:22:00,
2013-03-07 13:32:00,49.0,48.0,29.39,ENE,76,3.0,6.0,96,0.02,,,0.20,,2013-03-07 13:32:00,
2013-03-07 13:42:00,49.0,48.0,29.39,ENE,76,3.0,6.0,96,0.02,,,0.20,,2013-03-07 13:42:00,
2013-03-07 13:53:00,49.0,48.0,29.38,ESE,104,0.0,4.0,97,0.01,,,0.20,,2013-03-07 13:53:00,
2013-03-07 14:01:00,49.0,48.0,29.38,ENE,76,0.0,4.0,97,0.01,,,0.20,,2013-03-07 14:01:00,
2013-03-07 14:11:00,49.0,48.0,29.38,ENE,76,0.0,4.0,97,0.01,,,0.20,,2013-03-07 14:11:00,
2013-03-07 14:22:00,49.0,48.0,29.38,ENE,76,0.0,4.0,97,0.01,,,0.20,,2013-03-07 14:22:00,
2013-03-07 14:32:00,49.0,48.0,29.37,ENE,72,3.0,8.0,97,0.01,,,0.20,,2013-03-07 14:32:00,
2013-03-07 14:43:00,49.0,48.0,29.37,ENE,72,3.0,8.0,97,0.01,,,0.20,,2013-03-07 14:43:00,
2013-03-07 14:53:00,50.0,49.0,29.37,East,101,3.0,6.0,96,0.01,,,0.20,,2013-03-07 14:53:00,
2013-03-07 15:02:00,49.0,48.0,29.36,ESE,107,3.0,6.0,96,0.01,,,0.20,,2013-03-07 15:02:00,
2013-03-07 15:11:00,49.0,48.0,29.36,ESE,107,3.0,6.0,96,0.01,,,0.20,,2013-03-07 15:11:00,
2013-03-07 15:21:00,49.0,48.0,29.36,East,101,0.0,4.0,96,0.00,,,0.20,,2013-03-07 15:21:00,
2013-03-07 15:31:00,49.0,48.0,29.36,ESE,105,3.0,8.0,96,0.00,,,0.20,,2013-03-07 15:31:00,
2013-03-07 15:42:00,49.0,48.0,29.36,ESE,105,3.0,8.0,96,0.00,,,0.20,,2013-03-07 15:42:00,
2013-03-07 15:52:00,49.0,48.0,29.36,ESE,105,3.0,8.0,96,0.00,,,0.20,,2013-03-07 15:52:00,
2013-03-07 16:01:00,49.0,48.0,29.36,East,95,3.0,10.0,97,0.00,,,0.20,,2013-03-07 16:01:00,
2013-03-07 16:11:00,49.0,48.0,29.36,East,95,3.0,10.0,97,0.00,,,0.20,,2013-03-07 16:11:00,
2013-03-07 16:22:00,49.0,48.0,29.36,ESE,107,3.0,8.0,97,0.00,,,0.20,,2013-03-07 16:22:00,
2013-03-07 16:32:00,49.0,48.0,29.36,ESE,121,3.0,6.0,97,0.00,,,0.20,,2013-03-07 16:32:00,
2013-03-07 16:42:00,49.0,48.0,29.36,ESE,121,3.0,6.0,97,0.00,,,0.20,,2013-03-07 16:42:00,
2013-03-07 16:52:00,48.0,47.0,29.37,SE,140,3.0,8.0,97,0.00,,,0.20,,2013-03-07 16:52:00,
2013-03-07 17:01:00,48.0,47.0,29.37,SSE,167,0.0,6.0,97,0.00,,,0.20,,2013-03-07 17:01:00,
2013-03-07 17:11:00,48.0,47.0,29.37,SSE,167,0.0,6.0,97,0.00,,,0.20,,2013-03-07 17:11:00,
2013-03-07 17:21:00,48.0,47.0,29.37,SSE,167,0.0,6.0,97,0.00,,,0.20,,2013-03-07 17:21:00,
2013-03-07 17:31:00,48.0,47.0,29.36,East,79,3.0,8.0,98,0.00,,,0.20,,2013-03-07 17:31:00,
2013-03-07 17:42:00,48.0,47.0,29.36,East,79,3.0,8.0,98,0.00,,,0.20,,2013-03-07 17:42:00,
2013-03-07 17:54:00,48.0,47.0,29.36,ESE,115,3.0,6.0,98,0.00,,,0.20,,2013-03-07 17:54:00,
2013-03-07 18:02:00,48.0,47.0,29.36,East,96,3.0,6.0,98,0.00,,,0.20,,2013-03-07 18:02:00,
2013-03-07 18:11:00,48.0,47.0,29.36,East,96,3.0,6.0,98,0.00,,,0.20,,2013-03-07 18:11:00,
2013-03-07 18:21:00,48.0,47.0,29.36,East,96,3.0,6.0,98,0.00,,,0.20,,2013-03-07 18:21:00,
2013-03-07 18:32:00,48.0,47.0,29.36,East,96,3.0,6.0,98,0.00,,,0.20,,2013-03-07 18:32:00,
2013-03-07 18:52:00,47.0,47.0,29.37,SE,124,0.0,4.0,99,0.00,,,0.20,,2013-03-07 18:52:00,
2013-03-07 19:02:00,47.0,47.0,29.37,SE,124,0.0,4.0,99,0.00,,,0.20,,2013-03-07 19:02:00,
2013-03-07 19:11:00,47.0,47.0,29.37,SE,124,0.0,4.0,99,0.00,,,0.20,,2013-03-07 19:11:00,
2013-03-07 19:22:00,47.0,47.0,29.37,ENE,78,0.0,2.0,99,0.00,,,0.20,,2013-03-07 19:22:00,
2013-03-07 19:32:00,48.0,48.0,29.38,East,99,0.0,4.0,99,0.00,,,0.20,,2013-03-07 19:32:00,
2013-03-07 19:43:00,48.0,48.0,29.38,East,99,0.0,4.0,99,0.00,,,0.20,,2013-03-07 19:43:00,
2013-03-07 19:52:00,48.0,48.0,29.38,SE,128,0.0,4.0,99,0.00,,,0.20,,2013-03-07 19:52:00,
2013-03-07 20:01:00,48.0,48.0,29.38,SE,129,0.0,6.0,99,0.00,,,0.20,,2013-03-07 20:01:00,
2013-03-07 20:12:00,48.0,48.0,29.38,SE,129,0.0,6.0,99,0.00,,,0.20,,2013-03-07 20:12:00,
2013-03-07 20:21:00,48.0,48.0,29.38,East,88,0.0,4.0,99,0.00,,,0.20,,2013-03-07 20:21:00,
2013-03-07 20:32:00,48.0,48.0,29.38,East,88,0.0,4.0,99,0.00,,,0.20,,2013-03-07 20:32:00,
2013-03-07 20:42:00,48.0,48.0,29.38,East,88,0.0,4.0,99,0.00,,,0.20,,2013-03-07 20:42:00,
2013-03-07 20:53:00,48.0,48.0,29.38,SSE,166,0.0,2.0,99,0.00,,,0.20,,2013-03-07 20:53:00,
2013-03-07 21:01:00,48.0,48.0,29.38,SSE,166,0.0,2.0,99,0.00,,,0.20,,2013-03-07 21:01:00,
2013-03-07 21:11:00,48.0,48.0,29.38,SSE,166,0.0,2.0,99,0.00,,,0.20,,2013-03-07 21:11:00,
2013-03-07 21:21:00,48.0,48.0,29.38,SSE,166,0.0,2.0,99,0.00,,,0.20,,2013-03-07 21:21:00,
2013-03-07 21:31:00,48.0,48.0,29.38,SSE,166,0.0,2.0,99,0.00,,,0.20,,2013-03-07 21:31:00,
2013-03-07 21:52:00,48.0,48.0,29.38,East,96,0.0,4.0,99,0.00,,,0.20,,2013-03-07 21:52:00,
2013-03-07 22:01:00,48.0,48.0,29.38,East,99,0.0,2.0,99,0.00,,,0.20,,2013-03-07 22:01:00,
2013-03-07 22:11:00,48.0,48.0,29.38,East,99,0.0,2.0,99,0.00,,,0.20,,2013-03-07 22:11:00,
2013-03-07 22:21:00,48.0,48.0,29.38,East,99,0.0,2.0,100,0.00,,,0.20,,2013-03-07 22:21:00,
2013-03-07 22:32:00,48.0,48.0,29.38,East,101,0.0,4.0,100,0.00,,,0.20,,2013-03-07 22:32:00,
2013-03-07 22:41:00,48.0,48.0,29.38,East,101,0.0,4.0,100,0.00,,,0.20,,2013-03-07 22:41:00,
2013-03-07 22:52:00,48.0,48.0,29.38,East,101,0.0,4.0,100,0.00,,,0.20,,2013-03-07 22:52:00,
2013-03-07 23:02:00,48.0,48.0,29.37,ENE,67,0.0,2.0,100,0.00,,,0.20,,2013-03-07 23:02:00,
2013-03-07 23:11:00,48.0,48.0,29.37,ENE,67,0.0,2.0,100,0.00,,,0.20,,2013-03-07 23:11:00,
2013-03-07 23:21:00,48.0,48.0,29.37,ENE,67,0.0,2.0,100,0.00,,,0.20,,2013-03-07 23:21:00,
2013-03-07 23:32:00,48.0,48.0,29.37,ESE,120,0.0,2.0,100,0.00,,,0.20,,2013-03-07 23:32:00,
2013-03-07 23:42:00,48.0,48.0,29.37,ESE,120,0.0,2.0,100,0.00,,,0.20,,2013-03-07 23:42:00,
2013-03-07 23:53:00,48.0,48.0,29.37,ESE,120,0.0,2.0,100,0.00,,,0.20,,2013-03-07 23:53:00,